When you browse on this site, cookies collect data to enhance your experience and personalize the content and advertising you see.
Visit our Privacy Policy to learn more. By continuing to use the site, you agree to this use of cookies and data.
  • în România
  • Lista ţărilor
  • Pe 7 zile
  • Temperatura apei
  • Meteo pe hartă
  • Widget-uri
  • user-avatar
    Intrare

    Meteo pe oră la Nzérékoré

    Astăzi, 12 Noiembrie, Marţi

    Timp Temperatura Precipitaţii Vânt Presiune Umiditate
    00:00 +28°C° 0 mm 3 m/s 742 mmHg 78%
    01:00 +27°C° 0 mm 3 m/s 742 mmHg 80%
    02:00 +27°C° 0 mm 3 m/s 742 mmHg 81%
    03:00 +26°C° 0 mm 3 m/s 741 mmHg 82%
    04:00 +26°C° 0 mm 3 m/s 741 mmHg 83%
    05:00 +26°C° 0 mm 3 m/s 741 mmHg 85%
    06:00 +26°C° 0 mm 2 m/s 742 mmHg 87%
    07:00 +26°C° 0 mm 2 m/s 742 mmHg 89%
    08:00 +27°C° 0 mm 2 m/s 742 mmHg 83%
    09:00 +29°C° 0 mm 2 m/s 743 mmHg 77%
    10:00 +30°C° 0 mm 3 m/s 743 mmHg 71%
    11:00 +31°C° 0 mm 3 m/s 742 mmHg 66%
    12:00 +34°C° 0 mm 3 m/s 742 mmHg 61%
    13:00 +35°C° 0 mm 3 m/s 741 mmHg 57%
    14:00 +34°C° 0.1 mm 3 m/s 741 mmHg 60%
    15:00 +33°C° 0.1 mm 3 m/s 740 mmHg 62%
    16:00 +33°C° 0.1 mm 3 m/s 739 mmHg 65%
    17:00 +31°C° 0.1 mm 3 m/s 740 mmHg 69%
    18:00 +30°C° 0.1 mm 3 m/s 741 mmHg 73%
    19:00 +29°C° 0.1 mm 3 m/s 742 mmHg 78%
    20:00 +28°C° 0.5 mm 3 m/s 742 mmHg 80%
    21:00 +28°C° 0.5 mm 3 m/s 742 mmHg 82%
    22:00 +27°C° 0.5 mm 4 m/s 743 mmHg 85%
    23:00 +27°C° 0 mm 3 m/s 743 mmHg 86%

    Mâine, 13 Noiembrie, Miercuri

    Timp Temperatura Precipitaţii Vânt Presiune Umiditate
    00:00 +26°C° 0 mm 3 m/s 742 mmHg 88%
    01:00 +26°C° 0 mm 3 m/s 742 mmHg 90%
    02:00 +26°C° 0 mm 2 m/s 742 mmHg 91%
    03:00 +26°C° 0 mm 2 m/s 742 mmHg 92%
    04:00 +25°C° 0 mm 1 m/s 741 mmHg 93%
    05:00 +25°C° 0 mm 1 m/s 742 mmHg 92%
    06:00 +25°C° 0 mm 1 m/s 742 mmHg 92%
    07:00 +25°C° 0 mm 1 m/s 743 mmHg 92%
    08:00 +27°C° 0 mm 1 m/s 743 mmHg 83%
    09:00 +29°C° 0 mm 1 m/s 743 mmHg 75%
    10:00 +31°C° 0 mm 1 m/s 743 mmHg 67%
    11:00 +32°C° 0 mm 1 m/s 742 mmHg 62%
    12:00 +34°C° 0 mm 1 m/s 742 mmHg 57%
    13:00 +35°C° 0 mm 1 m/s 741 mmHg 52%
    14:00 +35°C° 0 mm 1 m/s 741 mmHg 52%
    15:00 +35°C° 0 mm 1 m/s 740 mmHg 52%
    16:00 +35°C° 0 mm 1 m/s 740 mmHg 51%
    17:00 +33°C° 0 mm 1 m/s 740 mmHg 56%
    18:00 +32°C° 0 mm 1 m/s 740 mmHg 60%
    19:00 +31°C° 0 mm 1 m/s 741 mmHg 64%
    20:00 +30°C° 0.3 mm 1 m/s 741 mmHg 68%
    21:00 +29°C° 0.3 mm 1 m/s 742 mmHg 71%
    22:00 +29°C° 0.3 mm 1 m/s 742 mmHg 75%
    23:00 +28°C° 0.7 mm 2 m/s 742 mmHg 79%

    Poimâine, 14 Noiembrie, Joi

    Timp Temperatura Precipitaţii Vânt Presiune Umiditate
    00:00 +27°C° 0.7 mm 2 m/s 742 mmHg 84%
    01:00 +27°C° 0.7 mm 2 m/s 742 mmHg 88%
    02:00 +26°C° 0.3 mm 2 m/s 742 mmHg 89%
    03:00 +26°C° 0.3 mm 2 m/s 742 mmHg 91%
    04:00 +26°C° 0.3 mm 2 m/s 742 mmHg 92%
    05:00 +26°C° 0.3 mm 2 m/s 742 mmHg 93%
    06:00 +26°C° 0.3 mm 2 m/s 743 mmHg 93%
    07:00 +26°C° 0.3 mm 2 m/s 743 mmHg 93%
    08:00 +27°C° 0 mm 2 m/s 743 mmHg 87%
    09:00 +29°C° 0 mm 2 m/s 743 mmHg 81%
    10:00 +30°C° 0 mm 2 m/s 743 mmHg 75%
    11:00 +32°C° 0 mm 2 m/s 743 mmHg 69%
    12:00 +34°C° 0 mm 2 m/s 742 mmHg 63%
    13:00 +34°C° 0 mm 1 m/s 741 mmHg 57%
    14:00 +34°C° 0 mm 1 m/s 741 mmHg 56%
    15:00 +34°C° 0 mm 1 m/s 740 mmHg 55%
    16:00 +32°C° 0 mm 0 m/s 740 mmHg 55%
    17:00 +33°C° 0 mm 1 m/s 740 mmHg 60%
    18:00 +31°C° 0 mm 1 m/s 740 mmHg 66%
    19:00 +30°C° 0 mm 1 m/s 741 mmHg 71%
    20:00 +30°C° 0 mm 1 m/s 741 mmHg 74%
    21:00 +29°C° 0 mm 2 m/s 742 mmHg 77%
    22:00 +29°C° 0 mm 2 m/s 742 mmHg 80%
    23:00 +28°C° 0 mm 2 m/s 742 mmHg 81%

    15 Noiembrie, Vineri

    Timp Temperatura Precipitaţii Vânt Presiune Umiditate
    00:00 +28°C° 0 mm 2 m/s 742 mmHg 82%
    01:00 +28°C° 0 mm 2 m/s 742 mmHg 83%
    02:00 +27°C° 0 mm 2 m/s 741 mmHg 84%
    03:00 +27°C° 0 mm 2 m/s 741 mmHg 86%
    04:00 +26°C° 0 mm 2 m/s 741 mmHg 88%
    05:00 +26°C° 0 mm 2 m/s 741 mmHg 89%
    06:00 +26°C° 0 mm 2 m/s 742 mmHg 90%
    07:00 +26°C° 0 mm 2 m/s 742 mmHg 91%
    08:00 +28°C° 0 mm 2 m/s 743 mmHg 85%
    09:00 +29°C° 0 mm 2 m/s 743 mmHg 78%
    10:00 +31°C° 0 mm 3 m/s 743 mmHg 72%
    11:00 +31°C° 0 mm 2 m/s 742 mmHg 69%
    12:00 +32°C° 0 mm 2 m/s 742 mmHg 67%
    13:00 +34°C° 0 mm 2 m/s 741 mmHg 64%
    14:00 +34°C° 0 mm 2 m/s 740 mmHg 64%
    15:00 +34°C° 0 mm 2 m/s 740 mmHg 65%
    16:00 +32°C° 0 mm 1 m/s 739 mmHg 65%
    17:00 +31°C° 0 mm 1 m/s 740 mmHg 70%
    18:00 +30°C° 0 mm 1 m/s 740 mmHg 74%
    19:00 +29°C° 0 mm 1 m/s 740 mmHg 78%
    20:00 +29°C° 0 mm 2 m/s 741 mmHg 79%
    21:00 +28°C° 0 mm 2 m/s 741 mmHg 81%
    22:00 +28°C° 0 mm 2 m/s 742 mmHg 83%
    23:00 +28°C° 0 mm 2 m/s 742 mmHg 84%

    16 Noiembrie, Sâmbătă

    Timp Temperatura Precipitaţii Vânt Presiune Umiditate
    00:00 +27°C° 0 mm 2 m/s 742 mmHg 85%
    01:00 +27°C° 0 mm 2 m/s 741 mmHg 86%
    02:00 +27°C° 0 mm 2 m/s 741 mmHg 88%
    03:00 +26°C° 0 mm 2 m/s 741 mmHg 89%
    04:00 +26°C° 0 mm 2 m/s 741 mmHg 91%
    05:00 +26°C° 0 mm 2 m/s 741 mmHg 92%
    06:00 +26°C° 0 mm 2 m/s 742 mmHg 92%
    07:00 +26°C° 0 mm 1 m/s 742 mmHg 92%
    08:00 +28°C° 0 mm 2 m/s 742 mmHg 85%
    09:00 +29°C° 0 mm 2 m/s 743 mmHg 77%
    10:00 +31°C° 0 mm 2 m/s 743 mmHg 70%
    11:00 +32°C° 0 mm 1 m/s 742 mmHg 65%
    12:00 +34°C° 0 mm 1 m/s 742 mmHg 60%
    13:00 +35°C° 0 mm 1 m/s 741 mmHg 55%
    14:00 +35°C° 0 mm 1 m/s 740 mmHg 54%
    15:00 +35°C° 0 mm 1 m/s 740 mmHg 53%
    16:00 +35°C° 0 mm 1 m/s 739 mmHg 53%
    17:00 +33°C° 0 mm 1 m/s 740 mmHg 58%
    18:00 +32°C° 0 mm 1 m/s 740 mmHg 64%
    19:00 +30°C° 0 mm 1 m/s 740 mmHg 70%
    20:00 +29°C° 0 mm 2 m/s 741 mmHg 74%
    21:00 +29°C° 0 mm 2 m/s 741 mmHg 77%
    22:00 +28°C° 0 mm 2 m/s 742 mmHg 81%
    23:00 +28°C° 0 mm 2 m/s 742 mmHg 82%

    17 Noiembrie, Duminică

    Timp Temperatura Precipitaţii Vânt Presiune Umiditate
    00:00 +28°C° 0 mm 2 m/s 741 mmHg 84%
    01:00 +27°C° 0 mm 2 m/s 741 mmHg 85%
    02:00 +27°C° 0 mm 2 m/s 741 mmHg 87%
    03:00 +27°C° 0 mm 2 m/s 741 mmHg 88%
    04:00 +26°C° 0 mm 2 m/s 741 mmHg 90%
    05:00 +26°C° 0 mm 2 m/s 741 mmHg 91%
    06:00 +26°C° 0 mm 2 m/s 742 mmHg 91%
    07:00 +26°C° 0 mm 1 m/s 742 mmHg 92%
    08:00 +28°C° 0 mm 2 m/s 743 mmHg 84%
    09:00 +30°C° 0 mm 2 m/s 743 mmHg 76%
    10:00 +31°C° 0 mm 2 m/s 743 mmHg 68%
    11:00 +34°C° 0 mm 2 m/s 743 mmHg 63%
    12:00 +34°C° 0 mm 1 m/s 742 mmHg 58%
    13:00 +35°C° 0 mm 1 m/s 741 mmHg 53%
    14:00 +35°C° 0 mm 1 m/s 741 mmHg 52%
    15:00 +35°C° 0 mm 1 m/s 740 mmHg 52%
    16:00 +35°C° 0 mm 1 m/s 739 mmHg 51%
    17:00 +33°C° 0 mm 1 m/s 740 mmHg 57%
    18:00 +32°C° 0 mm 2 m/s 740 mmHg 64%
    19:00 +30°C° 0 mm 2 m/s 741 mmHg 70%
    20:00 +29°C° 0 mm 2 m/s 741 mmHg 73%
    21:00 +29°C° 0 mm 2 m/s 742 mmHg 76%
    22:00 +28°C° 0 mm 3 m/s 742 mmHg 79%
    23:00 +28°C° 0 mm 3 m/s 742 mmHg 81%
    Arată mai mult